Year,Month,Day,Hour,Minute,Value (Times are PST for temperature in C)
2010,07,09,00,00,20.40
2010,07,09,00,01,20.40
2010,07,09,00,02,20.40
2010,07,09,00,03,20.30
2010,07,09,00,04,20.30
2010,07,09,00,05,20.30
2010,07,09,00,06,20.30
2010,07,09,00,07,20.30
2010,07,09,00,08,20.30
2010,07,09,00,09,20.30
2010,07,09,00,10,20.30
2010,07,09,00,11,20.30
2010,07,09,00,12,20.20
2010,07,09,00,13,20.20
2010,07,09,00,14,20.20
2010,07,09,00,15,20.20
2010,07,09,00,16,20.20
2010,07,09,00,17,20.20
2010,07,09,00,18,20.20
2010,07,09,00,19,20.20
2010,07,09,00,20,20.20
2010,07,09,00,21,20.20
2010,07,09,00,22,20.20
2010,07,09,00,23,20.20
2010,07,09,00,24,20.20
2010,07,09,00,25,20.10
2010,07,09,00,26,20.10
2010,07,09,00,27,20.10
2010,07,09,00,28,20.10
2010,07,09,00,29,20.10
2010,07,09,00,30,20.10
2010,07,09,00,31,20.10
2010,07,09,00,32,20.10
2010,07,09,00,33,20.10
2010,07,09,00,34,20.00
2010,07,09,00,35,20.00
2010,07,09,00,36,20.00
2010,07,09,00,37,20.00
2010,07,09,00,38,20.00
2010,07,09,00,39,20.00
2010,07,09,00,40,19.90
2010,07,09,00,41,19.90
2010,07,09,00,42,19.90
2010,07,09,00,43,19.90
2010,07,09,00,44,19.90
2010,07,09,00,45,19.90
2010,07,09,00,46,19.90
2010,07,09,00,47,19.80
2010,07,09,00,48,19.80
2010,07,09,00,49,19.80
2010,07,09,00,50,19.80
2010,07,09,00,51,19.80
2010,07,09,00,52,19.80
2010,07,09,00,53,19.80
2010,07,09,00,54,19.80
2010,07,09,00,55,19.80
2010,07,09,00,56,19.70
2010,07,09,00,57,19.70
2010,07,09,00,58,19.70
2010,07,09,00,59,19.70
2010,07,09,01,00,19.70
2010,07,09,01,01,19.70
2010,07,09,01,02,19.70
2010,07,09,01,06,19.70
2010,07,09,01,07,19.70
2010,07,09,01,08,19.70
2010,07,09,01,09,19.70
2010,07,09,01,10,19.60
2010,07,09,01,11,19.60
2010,07,09,01,12,19.60
2010,07,09,01,13,19.60
2010,07,09,01,14,19.60
2010,07,09,01,15,19.60
2010,07,09,01,16,19.60
2010,07,09,01,17,19.60
2010,07,09,01,18,19.60
2010,07,09,01,19,19.60
2010,07,09,01,20,19.60
2010,07,09,01,21,19.60
2010,07,09,01,22,19.60
2010,07,09,01,23,19.60
2010,07,09,01,24,19.60
2010,07,09,01,25,19.50
2010,07,09,01,26,19.50
2010,07,09,01,27,19.50
2010,07,09,01,28,19.50
2010,07,09,01,29,19.50
2010,07,09,01,30,19.50
2010,07,09,01,31,19.50
2010,07,09,01,32,19.40
2010,07,09,01,33,19.40
2010,07,09,01,34,19.40
2010,07,09,01,35,19.40
2010,07,09,01,36,19.40
2010,07,09,01,37,19.40
2010,07,09,01,38,19.30
2010,07,09,01,39,19.30
2010,07,09,01,40,19.30
2010,07,09,01,41,19.30
2010,07,09,01,42,19.20
2010,07,09,01,43,19.20
2010,07,09,01,44,19.20
2010,07,09,01,45,19.20
2010,07,09,01,46,19.10
2010,07,09,01,47,19.10
2010,07,09,01,48,19.10
2010,07,09,01,49,19.10
2010,07,09,01,50,19.00
2010,07,09,01,51,19.00
2010,07,09,01,52,18.90
2010,07,09,01,53,18.90
2010,07,09,01,54,18.90
2010,07,09,01,55,18.90
2010,07,09,01,56,18.90
2010,07,09,01,57,18.80
2010,07,09,01,58,18.80
2010,07,09,01,59,18.80
2010,07,09,02,00,18.80
2010,07,09,02,01,18.80
2010,07,09,02,02,18.70
2010,07,09,02,03,18.70
2010,07,09,02,04,18.70
2010,07,09,02,05,18.70
2010,07,09,02,06,18.60
2010,07,09,02,07,18.60
2010,07,09,02,08,18.60
2010,07,09,02,09,18.60
2010,07,09,02,10,18.50
2010,07,09,02,11,18.50
2010,07,09,02,12,18.50
2010,07,09,02,13,18.40
2010,07,09,02,14,18.40
2010,07,09,02,15,18.40
2010,07,09,02,16,18.40
2010,07,09,02,17,18.40
2010,07,09,02,18,18.30
2010,07,09,02,19,18.30
2010,07,09,02,20,18.30
2010,07,09,02,21,18.30
2010,07,09,02,22,18.30
2010,07,09,02,23,18.30
2010,07,09,02,24,18.30
2010,07,09,02,25,18.30
2010,07,09,02,26,18.20
2010,07,09,02,27,18.20
2010,07,09,02,28,18.20
2010,07,09,02,29,18.20
2010,07,09,02,30,18.20
2010,07,09,02,31,18.20
2010,07,09,02,32,18.20
2010,07,09,02,33,18.20
2010,07,09,02,34,18.10
2010,07,09,02,35,18.10
2010,07,09,02,36,18.10
2010,07,09,02,37,18.10
2010,07,09,02,38,18.10
2010,07,09,02,39,18.10
2010,07,09,02,40,18.10
2010,07,09,02,41,18.10
2010,07,09,02,42,18.10
2010,07,09,02,43,18.00
2010,07,09,02,44,18.00
2010,07,09,02,45,18.00
2010,07,09,02,46,17.90
2010,07,09,02,47,17.90
2010,07,09,02,48,17.90
2010,07,09,02,49,17.90
2010,07,09,02,50,17.90
2010,07,09,02,51,17.90
2010,07,09,02,52,17.90
2010,07,09,02,53,17.80
2010,07,09,02,54,17.80
2010,07,09,02,55,17.80
2010,07,09,02,56,17.80
2010,07,09,02,57,17.80
2010,07,09,02,58,17.80
2010,07,09,02,59,17.80
2010,07,09,03,00,17.80
2010,07,09,03,01,17.80
2010,07,09,03,02,17.80
2010,07,09,03,03,17.80
2010,07,09,03,04,17.80
2010,07,09,03,05,17.80
2010,07,09,03,06,17.70
2010,07,09,03,07,17.70
2010,07,09,03,08,17.70
2010,07,09,03,09,17.70
2010,07,09,03,10,17.70
2010,07,09,03,11,17.70
2010,07,09,03,12,17.70
2010,07,09,03,13,17.70
2010,07,09,03,14,17.70
2010,07,09,03,15,17.70
2010,07,09,03,16,17.60
2010,07,09,03,17,17.60
2010,07,09,03,18,17.60
2010,07,09,03,19,17.60
2010,07,09,03,20,17.60
2010,07,09,03,21,17.60
2010,07,09,03,22,17.60
2010,07,09,03,23,17.60
2010,07,09,03,24,17.50
2010,07,09,03,25,17.50
2010,07,09,03,26,17.50
2010,07,09,03,27,17.50
2010,07,09,03,28,17.50
2010,07,09,03,29,17.40
2010,07,09,03,30,17.40
2010,07,09,03,31,17.40
2010,07,09,03,32,17.40
2010,07,09,03,33,17.40
2010,07,09,03,34,17.40
2010,07,09,03,35,17.40
2010,07,09,03,36,17.40
2010,07,09,03,37,17.40
2010,07,09,03,38,17.40
2010,07,09,03,39,17.40
2010,07,09,03,40,17.40
2010,07,09,03,41,17.30
2010,07,09,03,42,17.30
2010,07,09,03,43,17.30
2010,07,09,03,44,17.30
2010,07,09,03,45,17.30
2010,07,09,03,46,17.30
2010,07,09,03,47,17.30
2010,07,09,03,48,17.30
2010,07,09,03,49,17.30
2010,07,09,03,50,17.20
2010,07,09,03,51,17.20
2010,07,09,03,52,17.20
2010,07,09,03,53,17.20
2010,07,09,03,54,17.20
2010,07,09,03,55,17.20
2010,07,09,03,56,17.20
2010,07,09,03,57,17.20
2010,07,09,03,58,17.20
2010,07,09,03,59,17.10
2010,07,09,04,00,17.10
2010,07,09,04,01,17.10
2010,07,09,04,02,17.10
2010,07,09,04,03,17.10
2010,07,09,04,04,17.10
2010,07,09,04,05,17.10
2010,07,09,04,06,17.10
2010,07,09,04,07,17.10
2010,07,09,04,08,17.10
2010,07,09,04,09,17.00
2010,07,09,04,10,17.00
2010,07,09,04,11,17.00
2010,07,09,04,12,17.00
2010,07,09,04,13,16.90
2010,07,09,04,14,16.90
2010,07,09,04,15,16.90
2010,07,09,04,16,16.90
2010,07,09,04,17,16.90
2010,07,09,04,18,16.90
2010,07,09,04,19,16.90
2010,07,09,04,20,16.80
2010,07,09,04,21,16.80
2010,07,09,04,22,16.80
2010,07,09,04,23,16.80
2010,07,09,04,24,16.80
2010,07,09,04,25,16.80
2010,07,09,04,26,16.80
2010,07,09,04,27,16.80
2010,07,09,04,28,16.80
2010,07,09,04,29,16.70
2010,07,09,04,30,16.70
2010,07,09,04,31,16.70
2010,07,09,04,32,16.70
2010,07,09,04,33,16.70
2010,07,09,04,34,16.70
2010,07,09,04,35,16.70
2010,07,09,04,36,16.70
2010,07,09,04,37,16.60
2010,07,09,04,38,16.60
2010,07,09,04,39,16.60
2010,07,09,04,40,16.60
2010,07,09,04,41,16.60
2010,07,09,04,42,16.60
2010,07,09,04,43,16.50
2010,07,09,04,44,16.50
2010,07,09,04,45,16.50
2010,07,09,04,46,16.40
2010,07,09,04,47,16.40
2010,07,09,04,48,16.40
2010,07,09,04,49,16.40
2010,07,09,04,50,16.40
2010,07,09,04,51,16.40
2010,07,09,04,52,16.40
2010,07,09,04,53,16.30
2010,07,09,04,54,16.30
2010,07,09,04,55,16.30
2010,07,09,04,56,16.30
2010,07,09,04,57,16.30
2010,07,09,04,58,16.30
2010,07,09,04,59,16.30
2010,07,09,05,00,16.30
2010,07,09,05,01,16.20
2010,07,09,05,02,16.20
2010,07,09,05,03,16.20
2010,07,09,05,04,16.20
2010,07,09,05,05,16.20
2010,07,09,05,06,16.20
2010,07,09,05,07,16.20
2010,07,09,05,08,16.20
2010,07,09,05,09,16.20
2010,07,09,05,10,16.20
2010,07,09,05,11,16.10
2010,07,09,05,12,16.10
2010,07,09,05,13,16.10
2010,07,09,05,14,16.10
2010,07,09,05,15,16.10
2010,07,09,05,16,16.10
2010,07,09,05,17,16.10
2010,07,09,05,18,16.10
2010,07,09,05,19,16.00
2010,07,09,05,20,16.00
2010,07,09,05,21,16.00
2010,07,09,05,22,16.00
2010,07,09,05,23,16.00
2010,07,09,05,24,16.00
2010,07,09,05,25,16.00
2010,07,09,05,26,15.90
2010,07,09,05,27,15.90
2010,07,09,05,28,15.90
2010,07,09,05,29,15.90
2010,07,09,05,30,15.90
2010,07,09,05,31,15.90
2010,07,09,05,32,15.90
2010,07,09,05,33,15.90
2010,07,09,05,34,15.90
2010,07,09,05,35,15.90
2010,07,09,05,36,15.80
2010,07,09,05,37,15.80
2010,07,09,05,38,15.80
2010,07,09,05,39,15.80
2010,07,09,05,40,15.80
2010,07,09,05,41,15.80
2010,07,09,05,42,15.80
2010,07,09,05,43,15.80
2010,07,09,05,44,15.80
2010,07,09,05,45,15.80
2010,07,09,05,46,15.80
2010,07,09,05,47,15.80
2010,07,09,05,48,15.80
2010,07,09,05,49,15.80
2010,07,09,05,50,15.80
2010,07,09,05,51,15.80
2010,07,09,05,52,15.80
2010,07,09,05,53,15.80
2010,07,09,05,54,15.80
2010,07,09,05,55,15.80
2010,07,09,05,56,15.80
2010,07,09,05,57,15.80
2010,07,09,05,58,15.70
2010,07,09,05,59,15.70
2010,07,09,06,00,15.70
2010,07,09,06,01,15.70
2010,07,09,06,02,15.70
2010,07,09,06,03,15.70
2010,07,09,06,04,15.70
2010,07,09,06,05,15.70
2010,07,09,06,06,15.70
2010,07,09,06,07,15.70
2010,07,09,06,08,15.70
2010,07,09,06,09,15.70
2010,07,09,06,10,15.70
2010,07,09,06,11,15.70
2010,07,09,06,12,15.70
2010,07,09,06,13,15.70
2010,07,09,06,14,15.70
2010,07,09,06,15,15.70
2010,07,09,06,16,15.70
2010,07,09,06,17,15.70
2010,07,09,06,18,15.70
2010,07,09,06,19,15.70
2010,07,09,06,20,15.70
2010,07,09,06,21,15.70
2010,07,09,06,22,15.70
2010,07,09,06,23,15.70
2010,07,09,06,24,15.70
2010,07,09,06,25,15.70
2010,07,09,06,26,15.70
2010,07,09,06,27,15.70
2010,07,09,06,28,15.70
2010,07,09,06,29,15.70
2010,07,09,06,30,15.70
2010,07,09,06,31,15.70
2010,07,09,06,32,15.70
2010,07,09,06,33,15.70
2010,07,09,06,34,15.70
2010,07,09,06,35,15.70
2010,07,09,06,36,15.70
2010,07,09,06,37,15.70
2010,07,09,06,38,15.70
2010,07,09,06,39,15.80
2010,07,09,06,40,15.80
2010,07,09,06,41,15.80
2010,07,09,06,42,15.80
2010,07,09,06,43,15.80
2010,07,09,06,44,15.80
2010,07,09,06,45,15.80
2010,07,09,06,46,15.80
2010,07,09,06,47,15.80
2010,07,09,06,48,15.80
2010,07,09,06,49,15.80
2010,07,09,06,50,15.80
2010,07,09,06,51,15.80
2010,07,09,06,52,15.80
2010,07,09,06,53,15.80
2010,07,09,06,54,15.80
2010,07,09,06,55,15.80
2010,07,09,06,56,15.80
2010,07,09,06,57,15.80
2010,07,09,06,58,15.80
2010,07,09,06,59,15.80
2010,07,09,07,00,15.80
2010,07,09,07,01,15.80
2010,07,09,07,02,15.80
2010,07,09,07,03,15.90
2010,07,09,07,04,15.90
2010,07,09,07,05,15.90
2010,07,09,07,06,15.90
2010,07,09,07,07,15.90
2010,07,09,07,08,15.90
2010,07,09,07,09,15.90
2010,07,09,07,10,16.00
2010,07,09,07,11,16.00
2010,07,09,07,12,16.00
2010,07,09,07,13,16.00
2010,07,09,07,14,16.10
2010,07,09,07,15,16.10
2010,07,09,07,16,16.10
2010,07,09,07,17,16.10
2010,07,09,07,18,16.20
2010,07,09,07,19,16.20
2010,07,09,07,20,16.20
2010,07,09,07,21,16.20
2010,07,09,07,22,16.20
2010,07,09,07,23,16.30
2010,07,09,07,24,16.30
2010,07,09,07,25,16.30
2010,07,09,07,26,16.30
2010,07,09,07,27,16.30
2010,07,09,07,28,16.30
2010,07,09,07,29,16.40
2010,07,09,07,30,16.40
2010,07,09,07,31,16.40
2010,07,09,07,32,16.40
2010,07,09,07,33,16.40
2010,07,09,07,34,16.50
2010,07,09,07,35,16.50
2010,07,09,07,36,16.50
2010,07,09,07,37,16.60
2010,07,09,07,38,16.60
2010,07,09,07,39,16.70
2010,07,09,07,40,16.70
2010,07,09,07,41,16.70
2010,07,09,07,42,16.80
2010,07,09,07,43,16.80
2010,07,09,07,44,16.90
2010,07,09,07,45,16.90
2010,07,09,07,46,17.00
2010,07,09,07,47,17.00
2010,07,09,07,48,17.10
2010,07,09,07,49,17.10
2010,07,09,07,50,17.20
2010,07,09,07,51,17.20
2010,07,09,07,52,17.30
2010,07,09,07,53,17.30
2010,07,09,07,54,17.40
2010,07,09,07,55,17.40
2010,07,09,07,56,17.40
2010,07,09,07,57,17.50
2010,07,09,07,58,17.50
2010,07,09,07,59,17.60
2010,07,09,08,00,17.60
2010,07,09,08,01,17.60
2010,07,09,08,02,17.70
2010,07,09,08,03,17.70
2010,07,09,08,04,17.80
2010,07,09,08,05,17.80
2010,07,09,08,06,17.80
2010,07,09,08,07,17.80
2010,07,09,08,08,17.90
2010,07,09,08,09,17.90
2010,07,09,08,10,18.00
2010,07,09,08,11,18.00
2010,07,09,08,12,18.10
2010,07,09,08,13,18.10
2010,07,09,08,14,18.10
2010,07,09,08,15,18.20
2010,07,09,08,16,18.20
2010,07,09,08,17,18.30
2010,07,09,08,18,18.30
2010,07,09,08,19,18.30
2010,07,09,08,20,18.40
2010,07,09,08,21,18.40
2010,07,09,08,22,18.40
2010,07,09,08,23,18.50
2010,07,09,08,24,18.60
2010,07,09,08,25,18.60
2010,07,09,08,26,18.60
2010,07,09,08,27,18.70
2010,07,09,08,28,18.70
2010,07,09,08,29,18.80
2010,07,09,08,30,18.80
2010,07,09,08,31,18.90
2010,07,09,08,32,18.90
2010,07,09,08,33,18.90
2010,07,09,08,34,19.00
2010,07,09,08,35,19.00
2010,07,09,08,36,19.10
2010,07,09,08,37,19.10
2010,07,09,08,38,19.20
2010,07,09,08,39,19.20
2010,07,09,08,40,19.20
2010,07,09,08,41,19.30
2010,07,09,08,42,19.30
2010,07,09,08,43,19.30
2010,07,09,08,44,19.40
2010,07,09,08,45,19.40
2010,07,09,08,46,19.40
2010,07,09,08,47,19.50
2010,07,09,08,48,19.50
2010,07,09,08,49,19.60
2010,07,09,08,50,19.60
2010,07,09,08,51,19.70
2010,07,09,08,52,19.70
2010,07,09,08,53,19.70
2010,07,09,08,54,19.80
2010,07,09,08,55,19.80
2010,07,09,08,56,19.80
2010,07,09,08,57,19.90
2010,07,09,08,58,19.90
2010,07,09,08,59,20.00
2010,07,09,09,00,20.00
2010,07,09,09,01,20.10
2010,07,09,09,02,20.10
2010,07,09,09,03,20.20
2010,07,09,09,04,20.20
2010,07,09,09,05,20.30
2010,07,09,09,06,20.30
2010,07,09,09,07,20.30
2010,07,09,09,08,20.40
2010,07,09,09,09,20.40
2010,07,09,09,10,20.50
2010,07,09,09,11,20.60
2010,07,09,09,12,20.60
2010,07,09,09,13,20.70
2010,07,09,09,14,20.70
2010,07,09,09,15,20.70
2010,07,09,09,16,20.70
2010,07,09,09,17,20.80
2010,07,09,09,18,20.80
2010,07,09,09,19,20.80
2010,07,09,09,20,20.90
2010,07,09,09,21,20.90
2010,07,09,09,22,21.00
2010,07,09,09,23,21.00
2010,07,09,09,24,21.10
2010,07,09,09,25,21.20
2010,07,09,09,26,21.20
2010,07,09,09,27,21.30
2010,07,09,09,28,21.40
2010,07,09,09,29,21.50
2010,07,09,09,30,21.60
2010,07,09,09,31,21.70
2010,07,09,09,32,21.70
2010,07,09,09,33,21.80
2010,07,09,09,34,21.80
2010,07,09,09,35,21.90
2010,07,09,09,36,22.00
2010,07,09,09,37,22.00
2010,07,09,09,38,22.10
2010,07,09,09,39,22.10
2010,07,09,09,40,22.20
2010,07,09,09,41,22.20
2010,07,09,09,42,22.20
2010,07,09,09,43,22.30
2010,07,09,09,44,22.30
2010,07,09,09,45,22.40
2010,07,09,09,46,22.40
2010,07,09,09,47,22.50
2010,07,09,09,48,22.60
2010,07,09,09,49,22.60
2010,07,09,09,50,22.70
2010,07,09,09,51,22.70
2010,07,09,09,52,22.70
2010,07,09,09,53,22.80
2010,07,09,09,54,22.80
2010,07,09,09,55,22.90
2010,07,09,09,56,23.00
2010,07,09,09,57,23.00
2010,07,09,09,58,23.10
2010,07,09,09,59,23.10
2010,07,09,10,00,23.10
2010,07,09,10,01,23.20
2010,07,09,10,02,23.20
2010,07,09,10,03,23.30
2010,07,09,10,04,23.30
2010,07,09,10,05,23.30
2010,07,09,10,06,23.40
2010,07,09,10,07,23.50
2010,07,09,10,08,23.60
2010,07,09,10,09,23.70
2010,07,09,10,10,23.70
2010,07,09,10,11,23.80
2010,07,09,10,12,23.80
2010,07,09,10,13,23.90
2010,07,09,10,14,23.90
2010,07,09,10,15,23.90
2010,07,09,10,16,23.90
2010,07,09,10,17,23.90
2010,07,09,10,18,23.90
2010,07,09,10,19,23.90
2010,07,09,10,20,23.90
2010,07,09,10,21,24.00
2010,07,09,10,22,24.00
2010,07,09,10,23,24.00
2010,07,09,10,24,24.10
2010,07,09,10,25,24.10
2010,07,09,10,26,24.10
2010,07,09,10,27,24.20
2010,07,09,10,28,24.20
2010,07,09,10,29,24.20
2010,07,09,10,30,24.30
2010,07,09,10,31,24.30
2010,07,09,10,32,24.30
2010,07,09,10,33,24.30
2010,07,09,10,34,24.30
2010,07,09,10,35,24.40
2010,07,09,10,36,24.40
2010,07,09,10,37,24.50
2010,07,09,10,38,24.60
2010,07,09,10,39,24.70
2010,07,09,10,40,24.70
2010,07,09,10,41,24.80
2010,07,09,10,42,24.80
2010,07,09,10,43,24.80
2010,07,09,10,44,24.80
2010,07,09,10,45,24.90
2010,07,09,10,46,25.00
2010,07,09,10,47,25.00
2010,07,09,10,48,25.10
2010,07,09,10,49,25.20
2010,07,09,10,50,25.40
2010,07,09,10,51,25.60
2010,07,09,10,52,25.60
2010,07,09,10,53,25.70
2010,07,09,10,54,25.80
2010,07,09,10,55,25.90
2010,07,09,10,56,25.90
2010,07,09,10,57,26.00
2010,07,09,10,58,26.10
2010,07,09,10,59,26.10
2010,07,09,11,00,26.20
2010,07,09,11,01,26.30
2010,07,09,11,02,26.30
2010,07,09,11,03,26.40
2010,07,09,11,04,26.50
2010,07,09,11,05,26.60
2010,07,09,11,06,26.70
2010,07,09,11,07,26.80
2010,07,09,11,08,26.90
2010,07,09,11,09,27.10
2010,07,09,11,10,27.10
2010,07,09,11,11,27.20
2010,07,09,11,12,27.20
2010,07,09,11,13,27.20
2010,07,09,11,14,27.20
2010,07,09,11,15,27.20
2010,07,09,11,16,27.20
2010,07,09,11,17,27.20
2010,07,09,11,18,27.20
2010,07,09,11,19,27.30
2010,07,09,11,20,27.30
2010,07,09,11,21,27.40
2010,07,09,11,22,27.50
2010,07,09,11,23,27.60
2010,07,09,11,24,27.70
2010,07,09,11,25,27.70
2010,07,09,11,26,27.80
2010,07,09,11,27,27.80
2010,07,09,11,28,27.80
2010,07,09,11,29,27.90
2010,07,09,11,30,27.90
2010,07,09,11,31,28.00
2010,07,09,11,32,28.00
2010,07,09,11,33,28.00
2010,07,09,11,34,28.10
2010,07,09,11,35,28.10
2010,07,09,11,36,28.20
2010,07,09,11,37,28.30
2010,07,09,11,38,28.40
2010,07,09,11,39,28.50
2010,07,09,11,40,28.60
2010,07,09,11,41,28.70
2010,07,09,11,42,28.70
2010,07,09,11,43,28.70
2010,07,09,11,44,28.70
2010,07,09,11,45,28.80
2010,07,09,11,46,28.90
2010,07,09,11,47,29.00
2010,07,09,11,48,29.10
2010,07,09,11,49,29.10
2010,07,09,11,50,29.20
2010,07,09,11,51,29.20
2010,07,09,11,52,29.30
2010,07,09,11,53,29.40
2010,07,09,11,54,29.50
2010,07,09,11,55,29.50
2010,07,09,11,56,29.60
2010,07,09,11,57,29.70
2010,07,09,11,58,29.80
2010,07,09,11,59,29.80
2010,07,09,12,00,29.80
2010,07,09,12,01,29.70
2010,07,09,12,02,29.70
2010,07,09,12,03,29.80
2010,07,09,12,04,29.80
2010,07,09,12,05,29.80
2010,07,09,12,06,29.80
2010,07,09,12,07,29.80
2010,07,09,12,08,29.80
2010,07,09,12,09,29.90
2010,07,09,12,10,29.90
2010,07,09,12,11,30.00
2010,07,09,12,12,30.00
2010,07,09,12,13,30.00
2010,07,09,12,14,30.00
2010,07,09,12,15,30.10
2010,07,09,12,16,30.10
2010,07,09,12,17,30.20
2010,07,09,12,18,30.20
2010,07,09,12,19,30.20
2010,07,09,12,20,30.30
2010,07,09,12,21,30.40
2010,07,09,12,22,30.40
2010,07,09,12,23,30.50
2010,07,09,12,24,30.60
2010,07,09,12,25,30.60
2010,07,09,12,26,30.70
2010,07,09,12,27,30.80
2010,07,09,12,28,30.80
2010,07,09,12,29,30.90
2010,07,09,12,30,30.90
2010,07,09,12,31,31.00
2010,07,09,12,32,31.00
2010,07,09,12,33,30.80
2010,07,09,12,34,30.80
2010,07,09,12,35,30.70
2010,07,09,12,36,30.70
2010,07,09,12,37,30.70
2010,07,09,12,38,30.70
2010,07,09,12,39,30.70
2010,07,09,12,40,30.70
2010,07,09,12,41,30.80
2010,07,09,12,42,30.90
2010,07,09,12,43,30.90
2010,07,09,12,44,30.90
2010,07,09,12,45,30.90
2010,07,09,12,46,30.90
2010,07,09,12,47,31.00
2010,07,09,12,48,31.00
2010,07,09,12,49,31.10
2010,07,09,12,50,31.20
2010,07,09,12,51,31.20
2010,07,09,12,52,31.20
2010,07,09,12,53,31.30
2010,07,09,12,54,31.30
2010,07,09,12,55,31.30
2010,07,09,12,56,31.40
2010,07,09,12,57,31.40
2010,07,09,12,58,31.40
2010,07,09,12,59,31.40
2010,07,09,13,00,31.50
2010,07,09,13,01,31.50
2010,07,09,13,02,31.50
2010,07,09,13,03,31.40
2010,07,09,13,04,31.50
2010,07,09,13,05,31.50
2010,07,09,13,06,31.50
2010,07,09,13,07,31.50
2010,07,09,13,08,31.60
2010,07,09,13,09,31.60
2010,07,09,13,10,31.70
2010,07,09,13,11,31.80
2010,07,09,13,12,31.80
2010,07,09,13,13,31.80
2010,07,09,13,14,31.80
2010,07,09,13,15,31.90
2010,07,09,13,16,31.90
2010,07,09,13,17,32.00
2010,07,09,13,18,32.00
2010,07,09,13,19,32.10
2010,07,09,13,20,32.10
2010,07,09,13,21,32.10
2010,07,09,13,22,32.10
2010,07,09,13,23,32.10
2010,07,09,13,24,32.10
2010,07,09,13,25,32.10
2010,07,09,13,26,32.00
2010,07,09,13,27,32.00
2010,07,09,13,28,32.00
2010,07,09,13,29,31.90
2010,07,09,13,30,31.90
2010,07,09,13,31,31.90
2010,07,09,13,32,31.90
2010,07,09,13,33,31.90
2010,07,09,13,34,31.90
2010,07,09,13,35,31.80
2010,07,09,13,36,31.80
2010,07,09,13,37,31.90
2010,07,09,13,38,31.90
2010,07,09,13,39,32.00
2010,07,09,13,40,32.10
2010,07,09,13,41,32.10
2010,07,09,13,42,32.10
2010,07,09,13,43,32.10
2010,07,09,13,44,32.10
2010,07,09,13,45,32.20
2010,07,09,13,46,32.20
2010,07,09,13,47,32.20
2010,07,09,13,48,32.10
2010,07,09,13,49,32.20
2010,07,09,13,50,32.20
2010,07,09,13,51,32.20
2010,07,09,13,52,32.20
2010,07,09,13,53,32.20
2010,07,09,13,54,32.30
2010,07,09,13,55,32.30
2010,07,09,13,56,32.30
2010,07,09,13,57,32.30
2010,07,09,13,58,32.30
2010,07,09,13,59,32.30
2010,07,09,14,00,32.30
2010,07,09,14,01,32.30
2010,07,09,14,02,32.30
2010,07,09,14,03,32.30
2010,07,09,14,04,32.30
2010,07,09,14,05,32.30
2010,07,09,14,06,32.30
2010,07,09,14,07,32.30
2010,07,09,14,08,32.30
2010,07,09,14,09,32.30
2010,07,09,14,10,32.30
2010,07,09,14,11,32.30
2010,07,09,14,12,32.30
2010,07,09,14,13,32.40
2010,07,09,14,14,32.40
2010,07,09,14,15,32.40
2010,07,09,14,16,32.40
2010,07,09,14,17,32.50
2010,07,09,14,18,32.60
2010,07,09,14,19,32.60
2010,07,09,14,20,32.70
2010,07,09,14,21,32.70
2010,07,09,14,22,32.60
2010,07,09,14,23,32.60
2010,07,09,14,24,32.50
2010,07,09,14,25,32.50
2010,07,09,14,26,32.40
2010,07,09,14,27,32.40
2010,07,09,14,28,32.40
2010,07,09,14,29,32.30
2010,07,09,14,30,32.20
2010,07,09,14,31,32.10
2010,07,09,14,32,32.10
2010,07,09,14,33,32.10
2010,07,09,14,34,32.10
2010,07,09,14,35,32.10
2010,07,09,14,36,32.10
2010,07,09,14,37,32.10
2010,07,09,14,38,32.10
2010,07,09,14,39,32.20
2010,07,09,14,40,32.20
2010,07,09,14,41,32.30
2010,07,09,14,42,32.30
2010,07,09,14,43,32.40
2010,07,09,14,44,32.40
2010,07,09,14,45,32.50
2010,07,09,14,46,32.60
2010,07,09,14,47,32.70
2010,07,09,14,48,32.80
2010,07,09,14,49,32.80
2010,07,09,14,50,32.90
2010,07,09,14,51,33.00
2010,07,09,14,52,33.10
2010,07,09,14,53,33.20
2010,07,09,14,54,33.20
2010,07,09,14,55,33.30
2010,07,09,14,56,33.40
2010,07,09,14,57,33.40
2010,07,09,14,58,33.50
2010,07,09,14,59,33.50
2010,07,09,15,00,33.60
2010,07,09,15,01,33.60
2010,07,09,15,02,33.60
2010,07,09,15,03,33.60
2010,07,09,15,04,33.60
2010,07,09,15,05,33.50
2010,07,09,15,06,33.50
2010,07,09,15,07,33.50
2010,07,09,15,08,33.50
2010,07,09,15,09,33.50
2010,07,09,15,10,33.30
2010,07,09,15,11,33.20
2010,07,09,15,12,33.10
2010,07,09,15,13,33.00
2010,07,09,15,14,33.00
2010,07,09,15,15,32.90
2010,07,09,15,16,32.80
2010,07,09,15,17,32.80
2010,07,09,15,18,32.80
2010,07,09,15,19,32.80
2010,07,09,15,20,32.80
2010,07,09,15,21,32.90
2010,07,09,15,22,33.00
2010,07,09,15,23,33.10
2010,07,09,15,24,33.20
2010,07,09,15,25,33.30
2010,07,09,15,26,33.30
2010,07,09,15,27,33.40
2010,07,09,15,28,33.40
2010,07,09,15,29,33.40
2010,07,09,15,30,33.40
2010,07,09,15,31,33.40
2010,07,09,15,32,33.40
2010,07,09,15,33,33.40
2010,07,09,15,34,33.40
2010,07,09,15,35,33.40
2010,07,09,15,36,33.20
2010,07,09,15,37,33.20
2010,07,09,15,38,33.10
2010,07,09,15,39,33.00
2010,07,09,15,40,33.00
2010,07,09,15,41,32.90
2010,07,09,15,42,32.90
2010,07,09,15,43,32.80
2010,07,09,15,44,32.70
2010,07,09,15,45,32.60
2010,07,09,15,46,32.50
2010,07,09,15,47,32.40
2010,07,09,15,48,32.30
2010,07,09,15,49,32.20
2010,07,09,15,50,32.10
2010,07,09,15,51,32.00
2010,07,09,15,52,31.90
2010,07,09,15,53,31.90
2010,07,09,15,54,31.80
2010,07,09,15,55,31.80
2010,07,09,15,56,31.70
2010,07,09,15,57,31.70
2010,07,09,15,58,31.60
2010,07,09,15,59,31.50
2010,07,09,16,00,31.40
2010,07,09,16,01,31.40
2010,07,09,16,02,31.20
2010,07,09,16,03,31.10
2010,07,09,16,04,31.10
2010,07,09,16,05,31.00
2010,07,09,16,06,30.90
2010,07,09,16,07,30.80
2010,07,09,16,08,30.70
2010,07,09,16,09,30.70
2010,07,09,16,10,30.70
2010,07,09,16,11,30.60
2010,07,09,16,12,30.60
2010,07,09,16,13,30.50
2010,07,09,16,14,30.50
2010,07,09,16,15,30.40
2010,07,09,16,16,30.30
2010,07,09,16,17,30.30
2010,07,09,16,18,30.20
2010,07,09,16,19,30.10
2010,07,09,16,20,30.00
2010,07,09,16,21,29.90
2010,07,09,16,22,29.80
2010,07,09,16,23,29.70
2010,07,09,16,24,29.60
2010,07,09,16,25,29.60
2010,07,09,16,26,29.50
2010,07,09,16,27,29.50
2010,07,09,16,28,29.50
2010,07,09,16,29,29.50
2010,07,09,16,30,29.50
2010,07,09,16,31,29.50
2010,07,09,16,32,29.40
2010,07,09,16,33,29.40
2010,07,09,16,34,29.40
2010,07,09,16,35,29.30
2010,07,09,16,36,29.30
2010,07,09,16,37,29.30
2010,07,09,16,38,29.20
2010,07,09,16,39,29.20
2010,07,09,16,40,29.20
2010,07,09,16,41,29.10
2010,07,09,16,42,29.10
2010,07,09,16,43,29.10
2010,07,09,16,44,29.00
2010,07,09,16,45,29.00
2010,07,09,16,46,28.90
2010,07,09,16,47,28.90
2010,07,09,16,48,28.90
2010,07,09,16,49,28.80
2010,07,09,16,50,28.80
2010,07,09,16,51,28.80
2010,07,09,16,52,28.80
2010,07,09,16,53,28.70
2010,07,09,16,54,28.70
2010,07,09,16,55,28.70
2010,07,09,16,56,28.70
2010,07,09,16,57,28.70
2010,07,09,16,58,28.70
2010,07,09,16,59,28.70
2010,07,09,17,00,28.70
2010,07,09,17,01,28.70
2010,07,09,17,02,28.70
2010,07,09,17,03,28.70
2010,07,09,17,04,28.70
2010,07,09,17,05,28.70
2010,07,09,17,06,28.70
2010,07,09,17,07,28.70
2010,07,09,17,08,28.70
2010,07,09,17,09,28.70
2010,07,09,17,10,28.70
2010,07,09,17,11,28.70
2010,07,09,17,12,28.60
2010,07,09,17,13,28.60
2010,07,09,17,14,28.60
2010,07,09,17,15,28.60
2010,07,09,17,16,28.60
2010,07,09,17,17,28.50
2010,07,09,17,18,28.50
2010,07,09,17,19,28.50
2010,07,09,17,20,28.40
2010,07,09,17,21,28.40
2010,07,09,17,22,28.40